EST,Max TemperatureF,Mean TemperatureF,Min TemperatureF,Max Dew PointF,MeanDew PointF,Min DewpointF,Max Humidity, Mean Humidity, Min Humidity, Max Sea Level PressureIn, Mean Sea Level PressureIn, Min Sea Level PressureIn, Max VisibilityMiles, Mean VisibilityMiles, Min VisibilityMiles, Max Wind SpeedMPH, Mean Wind SpeedMPH, Max Gust SpeedMPH,PrecipitationIn, CloudCover, Events, WindDirDegrees
2014-2-1,55,39,23,27,22,14,93,53,20,30.27,30.20,30.12,10,10,10,6,1,,0.00,3,,186
2014-2-2,60,44,28,43,32,23,87,63,39,30.14,30.08,30.02,10,10,10,7,1,,0.00,3,Rain,230
2014-2-3,60,46,33,55,41,32,100,81,47,30.29,30.06,29.89,10,7,0,16,4,28,0.82,5,Fog-Rain,333
2014-2-4,41,37,33,34,32,28,100,84,65,30.43,30.30,30.14,10,9,2,8,3,,0.09,8,Rain,75
2014-2-5,57,45,33,45,33,23,100,81,44,30.16,29.98,29.83,10,7,1,20,4,33,0.05,6,Rain,273
2014-2-6,39,34,28,25,20,18,70,59,45,30.35,30.28,30.17,10,10,10,16,6,23,0.00,3,,355
2014-2-7,44,36,28,30,25,21,93,69,46,30.37,30.30,30.26,10,10,10,7,1,,0.00,4,,35
2014-2-8,46,40,33,30,28,27,81,69,50,30.30,30.22,30.15,10,10,10,6,1,,0.00,7,,56
2014-2-9,53,42,30,34,31,28,93,71,47,30.20,30.10,30.00,10,10,7,13,3,21,0.00,3,,284
2014-2-10,41,36,32,32,31,25,93,84,65,30.26,30.16,30.07,10,10,10,6,2,,0.00,6,Rain,63
2014-2-11,37,32,28,25,18,14,75,59,44,30.39,30.31,30.24,10,10,10,8,4,,0.00,4,,81
2014-2-12,28,24,21,28,18,10,100,77,51,30.43,30.26,29.88,10,6,0,12,4,18,0.00,6,Snow,47
2014-2-13,42,34,26,32,28,21,100,85,56,29.86,29.67,29.53,10,7,0,21,3,34,0.68,5,Snow,307
2014-2-14,53,42,32,30,24,18,70,50,24,29.79,29.74,29.68,10,10,10,16,6,29,0.00,1,,220
2014-2-15,39,32,26,32,21,12,93,61,38,30.09,29.84,29.59,10,10,10,20,6,30,0.00,4,Rain,301
2014-2-16,51,36,21,28,23,16,87,62,41,30.18,30.09,30.02,10,10,10,20,2,29,0.00,1,,304
2014-2-17,41,34,28,32,24,21,100,65,45,30.38,30.27,30.19,10,10,3,8,3,,0.00,2,Snow,103
2014-2-18,62,44,26,32,27,19,100,62,20,30.25,30.17,30.11,10,8,3,9,2,,0.00,1,,213
2014-2-19,69,52,35,52,39,30,100,64,35,30.12,30.02,29.95,10,10,2,23,5,32,0.12,4,Rain-Thunderstorm,265
2014-2-20,59,52,44,43,39,34,87,66,50,30.23,30.13,29.97,10,10,10,7,2,,0.00,5,,48
2014-2-21,60,48,35,57,35,9,100,58,14,30.09,29.95,29.84,10,10,3,17,7,26,0.38,4,Rain-Thunderstorm,263
2014-2-22,64,48,32,30,23,16,93,45,16,30.23,30.15,30.07,10,10,10,14,2,10,0.00,0,,192
2014-2-23,68,49,30,32,29,23,87,49,23,30.14,30.03,29.93,10,10,10,15,3,21,0.00,0,,218
2014-2-24,53,44,33,34,22,12,70,42,22,30.16,30.10,29.97,10,10,10,14,6,23,0.00,0,,316
2014-2-25,53,40,28,27,21,16,80,47,28,30.12,30.04,29.97,10,10,10,16,2,23,0.00,3,,353
2014-2-26,44,35,26,25,20,16,75,55,34,30.00,29.91,29.82,10,10,10,15,3,22,0.00,2,,359
2014-2-27,46,32,19,18,8,-6,86,41,15,30.01,29.88,29.80,10,10,10,15,3,23,0.02,0,,272
2014-2-28,41,32,24,14,11,9,55,42,31,30.32,30.22,30.02,10,10,10,10,5,,0.00,0,,73